Simultaneous Nadir Overpasses (SNOs) Predictions

Prediction of SNOs between GOES-14 and NOAA-20 Satellite Orbit:

Table of predicted SNOs for the next 14.0 days since TLE Epoch: 4/21/2023
Index Date Time (GOES-14) GOES-14 Lat,Lon NOAA-20 Lat,Lon Distance(km) Time Diff (sec)
1 04/22/2023 20:40:36 -0.17,-108.23 -0.36,-109.03 91.67 80
2 04/23/2023 20:24:32 -0.18,-108.24 0.64,-104.50 426.08 80
3 04/25/2023 08:46:21 0.17,-108.25 0.49,-109.77 172.79 80
4 04/26/2023 08:24:57 0.18,-108.26 -0.50,-105.24 344.14 80
5 04/27/2023 20:46:53 -0.17,-108.26 -0.71,-110.54 260.27 80
6 04/28/2023 20:30:49 -0.18,-108.27 0.35,-106.01 257.71 80
7 04/30/2023 08:52:38 0.17,-108.30 0.83,-111.28 339.33 80
8 05/01/2023 08:31:13 0.18,-108.31 -0.18,-106.75 177.88 80
9 05/02/2023 20:53:10 -0.17,-108.30 -1.02,-112.05 427.87 80
10 05/03/2023 20:37:05 -0.17,-108.31 -0.01,-107.51 90.14 80
